#timestamp,LO_Frequency,Hit,StdDev 
1457017215.5,286046987.7,N
1457017235.3,286046988.0,N
1457017255.2,286046987.9,Y
1457017275.9,286046999.2,P
1457017295.7,286046998.3,N
1457017315.6,286047003.7,N
1457017335.4,286047003.3,N
1457017355.2,286047001.6,N
1457017375.1,286047003.3,N
1457017376.0,286047003.3,N
1457017395.8,286047003.6,N
1457017415.6,286047002.8,N
1457017435.4,286047004.4,N
1457017455.3,286047003.0,N
1457017475.1,286047009.5,N
1457017495.8,286047010.3,N
1457017515.7,286047012.2,N
1457017535.5,286047010.0,N
1457017555.3,286047009.8,N
1457017575.2,286047009.3,N
1457017595.9,286047011.4,N
1457017615.7,286047008.1,N
1457017635.6,286047010.0,N
1457017655.4,286047011.9,N
1457017675.2,286047011.1,N
1457017695.0,286047007.7,N
1457017696.0,286047007.7,N
1457017715.8,286047008.2,N
1457017735.6,286047011.3,N
1457017755.4,286047009.7,N
1457017775.3,286047009.6,N
1457017795.1,286047005.0,N
1457017815.8,286047007.2,N
1457017835.7,286047004.2,N
1457017855.5,286047002.4,N
1457017875.3,286047001.0,N
1457017895.2,286047000.0,N
1457017915.9,286047000.0,N
1457017935.7,286047002.4,N
1457017955.6,286047001.4,N
1457017975.4,286047002.5,N
1457017995.2,286047002.8,N
1457018015.1,286047002.3,N
1457018016.0,286047002.3,N
1457018035.8,286047001.8,N
1457018055.6,286046999.7,N
1457018075.5,286046998.6,N
1457018095.3,286047001.2,N
1457018115.1,286046999.5,N
1457018135.9,286046996.5,N
1457018155.7,286046999.6,N
1457018175.5,286047002.6,N
1457018195.4,286047005.3,N
1457018215.2,286047006.7,N
1457018235.0,286047007.0,N
1457018235.9,286047007.0,N
1457018255.8,286047004.6,N
1457018275.6,286047007.5,N
1457018295.4,286047007.1,N
1457018315.2,286047003.0,N
1457018335.1,286047004.7,N
1457018336.0,286047004.7,N
1457018355.8,286047005.9,N
1457018375.6,286047005.3,N
1457018395.5,286047007.3,N
1457018415.3,286047010.5,Y
1457018435.1,286047007.3,P
1457018455.9,286047004.8,N
1457018475.7,286047006.7,P
1457018495.5,286047008.5,Y
1457018515.4,286047005.6,P
1457018535.2,286047005.7,P
1457018555.0,286047006.0,P
1457018556.0,286047006.0,Y
1457018575.8,286047000.8,P
1457018595.6,286046998.2,N
1457018615.4,286047003.0,N
1457018635.3,286047003.2,N
1457018655.1,286047004.8,N
1457018675.8,286047004.3,N
1457018695.7,286047007.2,Y
1457018715.5,286047002.8,P
1457018735.3,286047001.0,P
1457018755.2,286046998.1,N
1457018775.9,286047000.6,N
1457018795.7,286047003.0,N
1457018815.6,286047008.3,Y
1457018835.4,286047005.0,P
1457018855.2,286047004.3,N
1457018875.1,286047007.0,P
1457018876.0,286047007.0,Y
1457018895.8,286047008.5,P
1457018915.6,286047007.0,P
1457018935.5,286047007.5,P
1457018955.3,286047004.8,Y
1457018975.1,286046995.4,P
1457018995.9,286046994.4,N
1457019015.7,286046990.5,N
1457019035.5,286046987.7,N
1457019055.4,286046987.8,N
1457019075.2,286046987.3,N
1457019095.0,286046987.5,N
1457019095.9,286046987.5,N
1457019115.8,286046985.8,N
1457019135.6,286046987.5,N
1457019155.4,286046988.2,N
1457019175.2,286046984.1,N
1457019195.1,286046984.5,N
1457019196.0,286046984.5,N
1457019215.8,286046982.4,Y
1457019235.7,286046992.7,P
1457019255.5,286046989.0,P
1457019275.3,286046988.9,P
1457019295.2,286046994.8,Y
1457019315.9,286047005.3,P
1457019335.7,286047001.4,N
1457019355.6,286047000.2,N
1457019375.4,286047003.3,N
1457019395.2,286047004.6,N
1457019415.0,286047005.3,N
1457019415.9,286047005.3,N
1457019435.8,286047005.3,N
1457019455.6,286047009.1,N
1457019475.4,286047007.7,N
1457019495.3,286047014.0,N
1457019515.1,286047009.8,N
1457019535.8,286047009.8,N
1457019555.7,286047009.0,N
1457019575.5,286047006.1,N
1457019595.3,286047014.0,N
1457019615.2,286047011.5,N
1457019635.9,286047015.5,N
1457019655.7,286047015.6,N
1457019675.6,286047013.8,N
1457019695.4,286047014.4,N
1457019715.2,286047016.2,N
1457019735.0,286047016.0,N
1457019735.9,286047016.0,N
1457019755.8,286047017.0,N
1457019775.6,286047017.1,N
1457019795.4,286047016.1,N
1457019815.3,286047015.8,N
1457019835.1,286047011.4,N
1457019855.8,286047011.6,N
1457019875.7,286047013.6,N
1457019895.5,286047010.2,N
1457019915.3,286047008.9,N
1457019935.2,286047004.6,N
1457019955.9,286047004.9,N
1457019975.7,286047005.2,N
1457019995.6,286047003.9,N
1457020015.4,286047004.0,N
1457020035.2,286047003.5,N
1457020055.0,286047003.2,N
1457020055.9,286047003.2,N
1457020075.8,286047003.1,N
1457020095.6,286047003.7,N
1457020115.4,286047001.5,N
1457020135.3,286047003.5,N
1457020155.1,286047001.5,N
1457020175.8,286047001.0,N
1457020195.7,286047000.9,N
1457020215.5,286047000.8,N
1457020235.3,286047002.1,N
1457020255.2,286047002.3,N
1457020275.9,286047003.4,N
1457020295.7,286047002.9,N
1457020315.6,286047001.4,N
1457020335.4,286047002.7,N
1457020355.2,286047001.2,N
1457020375.0,286046998.8,N
1457020376.0,286046998.8,N
1457020395.8,286046996.4,N
1457020415.6,286046994.7,N
1457020435.4,286046991.7,N
1457020455.3,286046994.0,N
1457020475.1,286046991.7,N
1457020495.8,286046994.6,N
1457020515.7,286046994.3,N
1457020535.5,286046992.6,N
1457020555.3,286046992.8,N
1457020575.2,286046994.8,N
1457020595.9,286046995.0,N
1457020615.7,286046993.5,N
1457020635.6,286046994.2,N
1457020655.4,286046992.7,N
1457020675.2,286046991.4,N
1457020695.1,286046992.6,N
1457020696.0,286046992.6,N
1457020715.8,286046991.8,N
1457020735.6,286046994.2,N
1457020755.5,286046995.4,N
1457020775.3,286046999.1,N
1457020795.1,286046995.3,N
